sat.trackr.live / text

‹ back to catalog

SMDC ONE 1.2

NORAD 38759 · 2012-048B

PAYLOAD ACTIVE UNKNOWN

§ Identity

Operator
Country
US
Launch date
2012-09-13
Launch site
AFWTR
Launch vehicle
Mass (kg)
RCS (m²)

External: N2YO · Heavens-Above · Gunter

§ Orbital elements

Epoch: 2026-09-19T21:44:27.760704Z

Period
94.59 min
Inclination
64.6557°
Eccentricity
0.0077588
Mean motion
15.22346287 rev/d
Perigee alt
445.4 km
Apogee alt
552.1 km
Semi-major
6,876.9 km
B*
1.9872e-4
RAAN
228.0438°
Arg perigee
143.6144°
Mean anomaly
217.0293°
Rev number
13,056

§ Raw data

SMDC ONE 1.21 38759U 12048B   26262.90587686  .00004775  00000+0  19872-3 0  99962 38759  64.6557 228.0438 0077588 143.6144 217.0293 15.22346287130561

JSON: /api/v1/satellites/38759 · /tle

For live sub-satellite position, see the globe view (requires WebGL).

§ Visibility from observer

Set your observer location to see the next 7 days of passes ≥ 10°. The values pass through the URL so the page stays shareable.

No JS? Fill the form by hand. The geolocation button needs JavaScript.